N716SC KSAN-KCRQ

Flight info

Callsign N716SC
Flight time 0h 18m
Altitude
Route
Aircraft

Departure

Time 2026-04-21 05:45
Airport San Diego International Airport (KSAN)

Arrival

Time 2026-04-21 06:03
Airport McClellan-Palomar Airport (KCRQ)
Time Latitude Longitude Altitude Speed Heading
2026-04-21 05:38 32.73413 -117.17974 22 ft 0 kts 290°
2026-04-21 05:40 32.73421 -117.17978 22 ft 2 kts 15°
2026-04-21 05:41 32.73428 -117.17970 22 ft 0 kts 86°
2026-04-21 05:41 32.73423 -117.17958 21 ft 6 kts 135°
2026-04-21 05:42 32.73363 -117.17950 21 ft 11 kts 194°
2026-04-21 05:42 32.73287 -117.17974 19 ft 10 kts 199°
2026-04-21 05:42 32.73223 -117.17945 16 ft 12 kts 109°
2026-04-21 05:42 32.73195 -117.17832 17 ft 16 kts 108°
2026-04-21 05:43 32.73166 -117.17711 18 ft 13 kts 105°
2026-04-21 05:43 32.73141 -117.17608 17 ft 13 kts 111°
2026-04-21 05:43 32.73113 -117.17568 17 ft 0 kts 144°
2026-04-21 05:44 32.73090 -117.17548 17 ft 11 kts 146°
2026-04-21 05:44 32.73018 -117.17586 17 ft 19 kts 285°
2026-04-21 05:45 32.73093 -117.17883 15 ft 62 kts 287°
2026-04-21 05:45 32.73241 -117.18500 125 ft 82 kts 287°
2026-04-21 05:45 32.73400 -117.19151 369 ft 84 kts 288°
2026-04-21 05:45 32.73544 -117.19803 640 ft 81 kts 284°
2026-04-21 05:46 32.73666 -117.20441 893 ft 79 kts 284°
2026-04-21 05:46 32.73780 -117.21090 1110 ft 82 kts 283°
2026-04-21 05:46 32.74083 -117.21655 1308 ft 87 kts 321°
2026-04-21 05:46 32.74537 -117.22097 1576 ft 82 kts 321°
2026-04-21 05:47 32.74992 -117.22536 1786 ft 85 kts 321°
2026-04-21 05:47 32.75437 -117.22989 2024 ft 84 kts 320°
2026-04-21 05:47 32.75875 -117.23437 2253 ft 82 kts 320°
2026-04-21 05:47 32.76305 -117.23877 2477 ft 81 kts 320°
2026-04-21 05:48 32.76725 -117.24305 2697 ft 80 kts 320°
2026-04-21 05:48 32.77150 -117.24737 2871 ft 84 kts 320°
2026-04-21 05:48 32.77610 -117.25190 2999 ft 85 kts 328°
2026-04-21 05:48 32.78208 -117.25493 3002 ft 99 kts 340°
2026-04-21 05:49 32.78897 -117.25659 2999 ft 102 kts 352°
2026-04-21 05:49 32.79608 -117.25722 3006 ft 103 kts 357°
2026-04-21 05:49 32.80331 -117.25788 3013 ft 104 kts 351°
2026-04-21 05:49 32.81031 -117.25941 3034 ft 104 kts 353°
2026-04-21 05:50 32.81761 -117.26060 2995 ft 108 kts 352°
2026-04-21 05:50 32.82498 -117.26147 2981 ft 109 kts 356°
2026-04-21 05:50 32.83256 -117.26228 2983 ft 107 kts 356°
2026-04-21 05:50 32.84000 -117.26220 2995 ft 107 kts
2026-04-21 05:51 32.84742 -117.26213 2990 ft 109 kts
2026-04-21 05:51 32.85488 -117.26224 3025 ft 105 kts 357°
2026-04-21 05:51 32.86232 -117.26235 2999 ft 108 kts 358°
2026-04-21 05:51 32.86975 -117.26267 3010 ft 107 kts 358°
2026-04-21 05:52 32.87718 -117.26317 3016 ft 107 kts 358°
2026-04-21 05:52 32.88459 -117.26355 3026 ft 107 kts 356°
2026-04-21 05:52 32.89207 -117.26404 3023 ft 107 kts 354°
2026-04-21 05:52 32.89945 -117.26465 3000 ft 108 kts 356°
2026-04-21 05:53 32.90681 -117.26548 3044 ft 106 kts 352°
2026-04-21 05:53 32.91429 -117.26592 3016 ft 108 kts
2026-04-21 05:53 32.92169 -117.26644 3045 ft 106 kts 348°
2026-04-21 05:53 32.92913 -117.26744 3015 ft 109 kts 357°
2026-04-21 05:54 32.93678 -117.26754 2970 ft 111 kts
2026-04-21 05:54 32.94434 -117.26762 2985 ft 106 kts 358°
2026-04-21 05:54 32.95174 -117.26766 2954 ft 108 kts
2026-04-21 05:54 32.95907 -117.26800 2957 ft 106 kts 356°
2026-04-21 05:55 32.96644 -117.26881 2938 ft 107 kts 353°
2026-04-21 05:55 32.97378 -117.26996 2921 ft 104 kts 354°
2026-04-21 05:55 32.98099 -117.27044 2634 ft 106 kts 358°
2026-04-21 05:55 32.98839 -117.27058 2350 ft 108 kts
2026-04-21 05:56 32.99590 -117.27028 2093 ft 106 kts
2026-04-21 05:56 33.00292 -117.26952 1948 ft 97 kts
2026-04-21 05:56 33.00987 -117.26876 1832 ft 104 kts
2026-04-21 05:56 33.01707 -117.26832 1758 ft 105 kts
2026-04-21 05:57 33.02418 -117.26851 1760 ft 100 kts 358°
2026-04-21 05:57 33.03094 -117.26905 1809 ft 93 kts 356°
2026-04-21 05:57 33.03750 -117.26935 1810 ft 96 kts 359°
2026-04-21 05:57 33.04423 -117.26939 1840 ft 99 kts
2026-04-21 05:58 33.05130 -117.26935 1842 ft 102 kts
2026-04-21 05:58 33.05840 -117.26913 1855 ft 103 kts
2026-04-21 05:58 33.06566 -117.26916 1845 ft 106 kts 359°
2026-04-21 05:58 33.07297 -117.26943 1832 ft 108 kts 356°
2026-04-21 05:59 33.08038 -117.27028 1816 ft 109 kts 353°
2026-04-21 05:59 33.08794 -117.27144 1774 ft 111 kts 352°
2026-04-21 05:59 33.09555 -117.27279 1760 ft 110 kts 351°
2026-04-21 06:00 33.11029 -117.27498 1801 ft 106 kts 354°
2026-04-21 06:00 33.11772 -117.27586 1768 ft 109 kts 353°
2026-04-21 06:00 33.12513 -117.27690 1813 ft 104 kts 352°
2026-04-21 06:00 33.13225 -117.27776 1633 ft 104 kts 356°
2026-04-21 06:01 33.13926 -117.27789 1451 ft 95 kts 355°
2026-04-21 06:01 33.14453 -117.28122 1430 ft 83 kts 300°
2026-04-21 06:01 33.14419 -117.28812 1302 ft 92 kts 235°
2026-04-21 06:01 33.13873 -117.28986 1241 ft 89 kts 152°
2026-04-21 06:02 33.13605 -117.28304 1174 ft 104 kts 88°
2026-04-21 06:02 33.13774 -117.27439 1113 ft 100 kts 77°
2026-04-21 06:02 33.13946 -117.26723 1020 ft 81 kts 84°
2026-04-21 06:02 33.13722 -117.26210 932 ft 75 kts 160°
2026-04-21 06:03 33.13237 -117.26289 752 ft 76 kts 225°
2026-04-21 06:03 33.13018 -117.26860 467 ft 75 kts 258°
2026-04-21 06:03 33.12922 -117.27428 336 ft 60 kts 260°
2026-04-21 06:03 33.12858 -117.27819 331 ft 29 kts 258°
2026-04-21 06:04 33.12790 -117.27951 330 ft 17 kts 223°
2026-04-21 06:04 33.12757 -117.27948 331 ft 0 kts 116°